Kalispell, MT

3:17 AM MDT on August 17, 2017 (GMT -0600)
Glacier Park International

Weather History for KGPI - February, 2012

Change the Weather History Date:

Sunday, February 5, 2012

  Actual Average Record
Temperature  
Mean Temperature 25 °F 26 °F  
Max Temperature 27 °F 34 °F 51 °F (1963)
Min Temperature 23 °F 18 °F -23 °F (1982)
Degree Days  
Heating Degree Days 40 39  
Month to date heating degree days 186 195  
Since 1 July heating degree days 4595 4986  
Cooling Degree Days 0 0  
Month to date cooling degree days 0 0  
Year to date cooling degree days 0 0  
Moisture  
Dew Point 20 °F    
Average Humidity 82    
Maximum Humidity 88    
Minimum Humidity 75    
Precipitation  
Precipitation 0.00 in 0.03 in 0.59 in (1907)
Month to date precipitation 0.10 0.17  
Year to date precipitation 1.47 1.50  
Snow  
Snow 0.00 in - - ()
Month to date snowfall 0.6  
Year to date snowfall 12.3  
Since 1 July snowfall 18.6  
Snow Depth T in    
Sea Level Pressure  
Sea Level Pressure 30.48 in    
Wind  
Wind Speed 3 mph (NE)    
Max Wind Speed 10 mph    
Max Gust Speed 12 mph    
Visibility 10 miles    
Events      
T = Trace of Precipitation, MM = Missing Value Source: NWS Daily Summary

Daily Weather History Graph

Daily Weather History Graph

Search for Another Location

Airport or City:

Trip Planner

Search our weather history database for the weather conditions in past years. The results will help you decide how hot, cold, wet, or windy it might be!

Date:

Astronomy

Feb. 05, 2012 Rise Set
Actual Time 8:00 AM MST 5:42 PM MST
Civil Twilight 7:27 AM MST 6:15 PM MST
Nautical Twilight 6:50 AM MST 6:52 PM MST
Astronomical Twilight 6:13 AM MST 7:28 PM MST
Moon 3:39 PM MST (2/5) 6:20 AM MST (2/5)
Length of Visible Light 10h 47m
Length of Day
9h 41m
Waxing Gibbous, 95% of the Moon is Illuminated
Feb 5
Waxing Gibbous
Feb 7
Full
Feb 14
Last Quarter
Feb 21
New
Feb 29
First Quarter

Hourly Weather History & Observations

Time (MST) Temp. Windchill Dew Point Humidity Pressure Visibility Wind Dir Wind Speed Gust Speed Precip Events Conditions
12:55 AM 26.1 °F - 21.9 °F 84% 30.52 in 10.0 mi Calm Calm - N/A   Overcast
1:55 AM 26.1 °F 21.9 °F 21.9 °F 84% 30.51 in 10.0 mi North 3.5 mph - N/A   Overcast
2:55 AM 25.0 °F 18.1 °F 21.0 °F 85% 30.52 in 10.0 mi NNE 5.8 mph - N/A   Overcast
3:55 AM 25.0 °F 18.1 °F 21.0 °F 85% 30.52 in 10.0 mi NE 5.8 mph - N/A   Overcast
4:55 AM 25.0 °F - 21.0 °F 85% 30.53 in 10.0 mi Calm Calm - N/A   Overcast
5:55 AM 24.1 °F 19.7 °F 21.0 °F 88% 30.53 in 10.0 mi North 3.5 mph - N/A   Overcast
6:55 AM 24.1 °F 17.0 °F 19.9 °F 84% 30.53 in 10.0 mi NNE 5.8 mph - N/A   Overcast
7:55 AM 23.0 °F 13.9 °F 19.0 °F 85% 30.53 in 10.0 mi NNE 8.1 mph - N/A   Overcast
8:55 AM 23.0 °F 13.1 °F 19.0 °F 85% 30.54 in 10.0 mi NNE 9.2 mph - N/A   Overcast
9:55 AM 23.0 °F 13.9 °F 18.0 °F 81% 30.54 in 10.0 mi NNE 8.1 mph - N/A   Overcast
10:55 AM 24.1 °F 18.2 °F 19.0 °F 81% 30.53 in 10.0 mi NNE 4.6 mph - N/A   Overcast
11:55 AM 24.1 °F - 19.0 °F 81% 30.52 in 10.0 mi Calm Calm - N/A   Overcast
12:55 PM 25.0 °F - 19.0 °F 78% 30.51 in 10.0 mi Calm Calm - N/A   Overcast
1:55 PM 25.0 °F - 19.0 °F 78% 30.49 in 10.0 mi Calm Calm - N/A   Overcast
2:29 PM 24.8 °F 20.5 °F 19.4 °F 80% 30.37 in 10.0 mi East 3.5 mph - N/A   Overcast
2:55 PM 26.1 °F 21.9 °F 19.0 °F 75% 30.48 in 10.0 mi East 3.5 mph - N/A   Overcast
3:55 PM 25.0 °F 20.7 °F 19.0 °F 78% 30.47 in 10.0 mi SSW 3.5 mph - N/A   Overcast
4:55 PM 25.0 °F - 19.0 °F 78% 30.47 in 10.0 mi Calm Calm - N/A   Overcast
5:55 PM 24.1 °F - 19.0 °F 81% 30.47 in 10.0 mi Calm Calm - N/A   Overcast
6:55 PM 25.0 °F - 19.0 °F 78% 30.46 in 10.0 mi Calm Calm - N/A   Overcast
7:55 PM 24.1 °F - 19.0 °F 81% 30.48 in 10.0 mi Calm Calm - N/A   Overcast
8:55 PM 24.1 °F - 19.0 °F 81% 30.48 in 10.0 mi Calm Calm - N/A   Overcast
9:55 PM 24.1 °F - 19.9 °F 84% 30.49 in 10.0 mi Calm Calm - N/A   Overcast
10:55 PM 24.1 °F - 19.0 °F 81% 30.49 in 10.0 mi Calm Calm - N/A   Overcast
11:55 PM 24.1 °F - 19.9 °F 84% 30.49 in 10.0 mi Calm Calm - N/A   Overcast